Time,TemperatureF,DewpointF,PressureIn,WindDirection,WindDirectionDegrees,WindSpeedMPH,WindSpeedGustMPH,Humidity,HourlyPrecipIn,Conditions,Clouds,dailyrainin,SoftwareType,DateUTC
2013-02-28 00:00:00,33.0,26.9,30.16,NW,304,9.0,13.0,78,0.00,,---,0.00,VWS V14.00,2013-02-28 06:00:00,
2013-02-28 00:05:00,33.0,26.9,30.16,NW,311,9.0,9.0,78,0.00,,---,0.00,VWS V14.00,2013-02-28 06:05:00,
2013-02-28 00:10:00,33.0,26.9,30.16,NW,306,8.0,10.0,78,0.00,,---,0.00,VWS V14.00,2013-02-28 06:10:00,
2013-02-28 00:15:00,32.9,26.8,30.16,NW,304,7.0,11.0,78,0.00,,---,0.00,VWS V14.00,2013-02-28 06:15:00,
2013-02-28 00:20:00,32.8,26.7,30.16,NW,304,7.0,7.0,78,0.00,,---,0.00,VWS V14.00,2013-02-28 06:20:00,
2013-02-28 00:25:00,32.7,26.6,30.16,NW,304,6.0,10.0,78,0.00,,---,0.00,VWS V14.00,2013-02-28 06:25:00,
2013-02-28 00:30:00,32.6,26.5,30.17,WNW,303,10.0,11.0,78,0.00,,---,0.00,VWS V14.00,2013-02-28 06:30:00,
2013-02-28 00:35:00,32.5,26.4,30.17,WNW,303,6.0,7.0,78,0.00,,---,0.00,VWS V14.00,2013-02-28 06:35:00,
2013-02-28 00:40:00,32.4,26.6,30.16,WNW,303,5.0,6.0,79,0.00,,---,0.00,VWS V14.00,2013-02-28 06:40:00,
2013-02-28 00:45:00,32.2,26.4,30.16,WNW,303,6.0,6.0,79,0.00,,---,0.00,VWS V14.00,2013-02-28 06:45:00,
2013-02-28 00:50:00,32.0,26.2,30.16,WNW,303,4.0,7.0,79,0.00,,---,0.00,VWS V14.00,2013-02-28 06:50:00,
2013-02-28 00:55:00,31.9,26.1,30.16,WNW,303,4.0,6.0,79,0.00,,---,0.00,VWS V14.00,2013-02-28 06:55:00,
2013-02-28 01:00:00,31.7,26.2,30.17,WNW,303,5.0,6.0,80,0.00,,---,0.00,VWS V14.00,2013-02-28 07:00:00,
2013-02-28 01:05:00,31.6,26.1,30.16,WNW,303,4.0,6.0,80,0.00,,---,0.00,VWS V14.00,2013-02-28 07:05:00,
2013-02-28 01:10:00,31.5,26.0,30.16,WNW,303,5.0,6.0,80,0.00,,---,0.00,VWS V14.00,2013-02-28 07:10:00,
2013-02-28 01:15:00,31.5,26.4,30.17,WNW,303,4.0,7.0,81,0.00,,---,0.00,VWS V14.00,2013-02-28 07:15:00,
2013-02-28 01:20:00,31.6,26.5,30.17,WNW,303,4.0,5.0,81,0.00,,---,0.00,VWS V14.00,2013-02-28 07:20:00,
2013-02-28 01:25:00,31.5,26.4,30.17,WNW,303,3.0,3.0,81,0.00,,---,0.00,VWS V14.00,2013-02-28 07:25:00,
2013-02-28 01:30:00,31.4,26.2,30.17,WNW,303,1.0,3.0,81,0.00,,---,0.00,VWS V14.00,2013-02-28 07:30:00,
2013-02-28 01:35:00,31.3,26.2,30.17,WNW,303,2.0,4.0,81,0.00,,---,0.00,VWS V14.00,2013-02-28 07:35:00,
2013-02-28 01:40:00,31.1,26.0,30.17,WNW,303,4.0,6.0,81,0.00,,---,0.00,VWS V14.00,2013-02-28 07:40:00,
2013-02-28 01:45:00,31.1,26.0,30.17,WNW,303,3.0,4.0,81,0.00,,---,0.00,VWS V14.00,2013-02-28 07:45:00,
2013-02-28 01:50:00,31.0,25.9,30.17,WNW,303,5.0,6.0,81,0.00,,---,0.00,VWS V14.00,2013-02-28 07:50:00,
2013-02-28 01:55:00,31.0,25.9,30.17,WNW,303,3.0,6.0,81,0.00,,---,0.00,VWS V14.00,2013-02-28 07:55:00,
2013-02-28 02:00:00,31.0,26.2,30.17,WNW,303,5.0,7.0,82,0.00,,---,0.00,VWS V14.00,2013-02-28 08:00:00,
2013-02-28 02:05:00,31.0,26.2,30.17,WNW,303,5.0,6.0,82,0.00,,---,0.00,VWS V14.00,2013-02-28 08:05:00,
2013-02-28 02:10:00,30.9,26.1,30.18,WNW,303,4.0,5.0,82,0.00,,---,0.00,VWS V14.00,2013-02-28 08:10:00,
2013-02-28 02:15:00,30.8,26.0,30.18,WNW,303,4.0,5.0,82,0.00,,---,0.00,VWS V14.00,2013-02-28 08:15:00,
2013-02-28 02:20:00,30.7,25.9,30.18,WNW,303,3.0,5.0,82,0.00,,---,0.00,VWS V14.00,2013-02-28 08:20:00,
2013-02-28 02:25:00,30.6,25.8,30.18,WNW,303,4.0,5.0,82,0.00,,---,0.00,VWS V14.00,2013-02-28 08:25:00,
2013-02-28 02:30:00,30.5,25.7,30.18,WNW,303,2.0,3.0,82,0.00,,---,0.00,VWS V14.00,2013-02-28 08:30:00,
2013-02-28 02:35:00,30.3,25.5,30.18,WNW,303,4.0,4.0,82,0.00,,---,0.00,VWS V14.00,2013-02-28 08:35:00,
2013-02-28 02:40:00,30.2,25.4,30.18,WNW,303,4.0,4.0,82,0.00,,---,0.00,VWS V14.00,2013-02-28 08:40:00,
2013-02-28 02:45:00,30.1,25.6,30.18,WNW,303,2.0,3.0,83,0.00,,---,0.00,VWS V14.00,2013-02-28 08:45:00,
2013-02-28 02:50:00,30.0,25.5,30.18,WNW,303,2.0,2.0,83,0.00,,---,0.00,VWS V14.00,2013-02-28 08:50:00,
2013-02-28 02:55:00,30.0,25.5,30.18,WNW,303,1.0,2.0,83,0.00,,---,0.00,VWS V14.00,2013-02-28 08:55:00,
2013-02-28 03:00:00,30.0,25.5,30.18,WNW,303,2.0,3.0,83,0.00,,---,0.00,VWS V14.00,2013-02-28 09:00:00,
2013-02-28 03:05:00,30.0,25.5,30.18,WNW,303,0.0,0.0,83,0.00,,---,0.00,VWS V14.00,2013-02-28 09:05:00,
2013-02-28 03:10:00,29.9,25.4,30.18,WNW,303,2.0,3.0,83,0.00,,---,0.00,VWS V14.00,2013-02-28 09:10:00,
2013-02-28 03:15:00,29.9,25.4,30.18,WNW,303,1.0,3.0,83,0.00,,---,0.00,VWS V14.00,2013-02-28 09:15:00,
2013-02-28 03:20:00,29.9,25.7,30.18,WNW,303,0.0,3.0,84,0.00,,---,0.00,VWS V14.00,2013-02-28 09:20:00,
2013-02-28 03:25:00,29.9,25.7,30.17,WNW,303,2.0,3.0,84,0.00,,---,0.00,VWS V14.00,2013-02-28 09:25:00,
2013-02-28 03:30:00,29.9,25.7,30.17,WNW,303,3.0,3.0,84,0.00,,---,0.00,VWS V14.00,2013-02-28 09:30:00,
2013-02-28 03:35:00,30.1,25.9,30.17,WNW,303,5.0,6.0,84,0.00,,---,0.00,VWS V14.00,2013-02-28 09:35:00,
2013-02-28 03:40:00,30.2,26.2,30.17,WNW,302,6.0,7.0,85,0.00,,---,0.00,VWS V14.00,2013-02-28 09:40:00,
2013-02-28 03:45:00,30.4,26.1,30.17,WNW,302,5.0,9.0,84,0.00,,---,0.00,VWS V14.00,2013-02-28 09:45:00,
2013-02-28 03:50:00,30.5,26.2,30.17,WNW,301,6.0,9.0,84,0.00,,---,0.00,VWS V14.00,2013-02-28 09:50:00,
2013-02-28 03:55:00,30.6,26.4,30.17,WNW,300,6.0,8.0,84,0.00,,---,0.00,VWS V14.00,2013-02-28 09:55:00,
2013-02-28 04:00:00,30.7,26.5,30.17,WNW,302,7.0,10.0,84,0.00,,---,0.00,VWS V14.00,2013-02-28 10:00:00,
2013-02-28 04:05:00,30.7,26.5,30.17,WNW,302,10.0,10.0,84,0.00,,---,0.00,VWS V14.00,2013-02-28 10:05:00,
2013-02-28 04:10:00,30.7,26.5,30.17,WNW,302,10.0,10.0,84,0.00,,---,0.00,VWS V14.00,2013-02-28 10:10:00,
2013-02-28 04:15:00,30.8,26.5,30.17,WNW,300,7.0,8.0,84,0.00,,---,0.00,VWS V14.00,2013-02-28 10:15:00,
2013-02-28 04:20:00,30.8,26.5,30.18,WNW,300,7.0,8.0,84,0.00,,---,0.00,VWS V14.00,2013-02-28 10:20:00,
2013-02-28 04:25:00,30.7,26.5,30.18,WNW,299,4.0,9.0,84,0.00,,---,0.00,VWS V14.00,2013-02-28 10:25:00,
2013-02-28 04:30:00,30.6,26.4,30.18,WNW,298,4.0,6.0,84,0.00,,---,0.00,VWS V14.00,2013-02-28 10:30:00,
2013-02-28 04:35:00,30.5,26.2,30.18,WNW,296,9.0,11.0,84,0.00,,---,0.00,VWS V14.00,2013-02-28 10:35:00,
2013-02-28 04:40:00,30.5,26.2,30.18,WNW,295,9.0,10.0,84,0.00,,---,0.00,VWS V14.00,2013-02-28 10:40:00,
2013-02-28 04:45:00,30.5,26.2,30.18,WNW,294,5.0,9.0,84,0.00,,---,0.00,VWS V14.00,2013-02-28 10:45:00,
2013-02-28 04:50:00,30.5,26.2,30.18,WNW,297,7.0,10.0,84,0.00,,---,0.00,VWS V14.00,2013-02-28 10:50:00,
2013-02-28 04:55:00,30.5,26.2,30.18,WNW,290,6.0,12.0,84,0.00,,---,0.00,VWS V14.00,2013-02-28 10:55:00,
2013-02-28 05:00:00,30.4,26.1,30.18,WNW,290,6.0,9.0,84,0.00,,---,0.00,VWS V14.00,2013-02-28 11:00:00,
2013-02-28 05:05:00,30.3,26.1,30.18,WNW,290,5.0,6.0,84,0.00,,---,0.00,VWS V14.00,2013-02-28 11:05:00,
2013-02-28 05:10:00,30.3,26.1,30.18,WNW,295,7.0,10.0,84,0.00,,---,0.00,VWS V14.00,2013-02-28 11:10:00,
2013-02-28 05:15:00,30.3,26.1,30.18,WNW,296,5.0,9.0,84,0.00,,---,0.00,VWS V14.00,2013-02-28 11:15:00,
2013-02-28 05:20:00,30.3,26.1,30.18,WNW,295,7.0,11.0,84,0.00,,---,0.00,VWS V14.00,2013-02-28 11:20:00,
2013-02-28 05:25:00,30.2,26.0,30.18,WNW,295,7.0,10.0,84,0.00,,---,0.00,VWS V14.00,2013-02-28 11:25:00,
2013-02-28 05:30:00,30.2,26.0,30.18,WNW,296,7.0,7.0,84,0.00,,---,0.00,VWS V14.00,2013-02-28 11:30:00,
2013-02-28 05:35:00,30.1,25.9,30.19,WNW,296,6.0,7.0,84,0.00,,---,0.00,VWS V14.00,2013-02-28 11:35:00,
2013-02-28 05:40:00,30.0,25.8,30.19,WNW,296,6.0,9.0,84,0.00,,---,0.00,VWS V14.00,2013-02-28 11:40:00,
2013-02-28 05:45:00,30.0,25.8,30.19,WNW,296,6.0,9.0,84,0.00,,---,0.00,VWS V14.00,2013-02-28 11:45:00,
2013-02-28 05:50:00,30.0,25.8,30.19,WNW,294,11.0,11.0,84,0.00,,---,0.00,VWS V14.00,2013-02-28 11:50:00,
2013-02-28 05:55:00,29.9,25.7,30.20,WNW,294,9.0,10.0,84,0.00,,---,0.00,VWS V14.00,2013-02-28 11:55:00,
2013-02-28 06:00:00,29.8,25.6,30.20,WNW,294,6.0,9.0,84,0.00,,---,0.00,VWS V14.00,2013-02-28 12:00:00,
2013-02-28 06:05:00,29.8,25.6,30.20,WNW,294,5.0,9.0,84,0.00,,---,0.00,VWS V14.00,2013-02-28 12:05:00,
2013-02-28 06:10:00,29.7,25.5,30.20,WNW,294,6.0,7.0,84,0.00,,---,0.00,VWS V14.00,2013-02-28 12:10:00,
2013-02-28 06:15:00,29.6,25.4,30.20,WNW,297,6.0,12.0,84,0.00,,---,0.00,VWS V14.00,2013-02-28 12:15:00,
2013-02-28 06:20:00,29.6,25.4,30.20,WNW,297,6.0,10.0,84,0.00,,---,0.00,VWS V14.00,2013-02-28 12:20:00,
2013-02-28 06:25:00,29.6,25.4,30.20,WNW,297,6.0,7.0,84,0.00,,---,0.00,VWS V14.00,2013-02-28 12:25:00,
2013-02-28 06:30:00,29.5,25.3,30.20,WNW,297,5.0,7.0,84,0.00,,---,0.00,VWS V14.00,2013-02-28 12:30:00,
2013-02-28 06:35:00,29.4,25.2,30.20,WNW,296,8.0,10.0,84,0.00,,---,0.00,VWS V14.00,2013-02-28 12:35:00,
2013-02-28 06:40:00,29.4,25.5,30.20,WNW,296,5.0,6.0,85,0.00,,---,0.00,VWS V14.00,2013-02-28 12:40:00,
2013-02-28 06:45:00,29.3,25.1,30.20,WNW,296,4.0,6.0,84,0.00,,---,0.00,VWS V14.00,2013-02-28 12:45:00,
2013-02-28 06:50:00,29.2,25.0,30.20,WNW,296,7.0,7.0,84,0.00,,---,0.00,VWS V14.00,2013-02-28 12:50:00,
2013-02-28 06:55:00,29.2,25.3,30.20,WNW,296,6.0,7.0,85,0.00,,---,0.00,VWS V14.00,2013-02-28 12:55:00,
2013-02-28 07:00:00,29.2,25.3,30.21,WNW,296,4.0,7.0,85,0.00,,---,0.00,VWS V14.00,2013-02-28 13:00:00,
2013-02-28 07:05:00,29.2,25.0,30.21,WNW,296,6.0,6.0,84,0.00,,---,0.00,VWS V14.00,2013-02-28 13:05:00,
2013-02-28 07:10:00,29.2,25.3,30.21,WNW,296,4.0,4.0,85,0.00,,---,0.00,VWS V14.00,2013-02-28 13:10:00,
2013-02-28 07:15:00,29.2,25.3,30.21,WNW,296,5.0,5.0,85,0.00,,---,0.00,VWS V14.00,2013-02-28 13:15:00,
2013-02-28 07:20:00,29.2,25.3,30.21,WNW,296,6.0,6.0,85,0.00,,---,0.00,VWS V14.00,2013-02-28 13:20:00,
2013-02-28 07:25:00,29.4,25.5,30.21,WNW,296,5.0,5.0,85,0.00,,---,0.00,VWS V14.00,2013-02-28 13:25:00,
2013-02-28 07:30:00,29.6,25.6,30.21,WNW,296,6.0,7.0,85,0.00,,---,0.00,VWS V14.00,2013-02-28 13:30:00,
2013-02-28 07:35:00,29.8,25.9,30.21,WNW,297,8.0,11.0,85,0.00,,---,0.00,VWS V14.00,2013-02-28 13:35:00,
2013-02-28 07:40:00,30.1,26.1,30.21,WNW,299,6.0,10.0,85,0.00,,---,0.00,VWS V14.00,2013-02-28 13:40:00,
2013-02-28 07:45:00,30.4,26.4,30.21,WNW,299,6.0,7.0,85,0.00,,---,0.00,VWS V14.00,2013-02-28 13:45:00,
2013-02-28 07:50:00,30.7,26.5,30.22,WNW,300,5.0,9.0,84,0.00,,---,0.00,VWS V14.00,2013-02-28 13:50:00,
2013-02-28 07:55:00,31.0,26.7,30.22,WNW,302,4.0,7.0,84,0.00,,---,0.00,VWS V14.00,2013-02-28 13:55:00,
2013-02-28 08:00:00,31.2,26.9,30.22,NW,304,7.0,10.0,84,0.00,,---,0.00,VWS V14.00,2013-02-28 14:00:00,
2013-02-28 08:05:00,31.5,26.9,30.22,WNW,302,10.0,10.0,83,0.00,,---,0.00,VWS V14.00,2013-02-28 14:05:00,
2013-02-28 08:10:00,31.9,27.3,30.22,NW,305,9.0,10.0,83,0.00,,---,0.00,VWS V14.00,2013-02-28 14:10:00,
2013-02-28 08:15:00,32.1,27.2,30.22,NW,304,9.0,10.0,82,0.00,,---,0.00,VWS V14.00,2013-02-28 14:15:00,
2013-02-28 08:20:00,32.4,27.5,30.22,NW,313,6.0,9.0,82,0.00,,---,0.00,VWS V14.00,2013-02-28 14:20:00,
2013-02-28 08:25:00,32.7,27.5,30.22,NW,309,5.0,11.0,81,0.00,,---,0.00,VWS V14.00,2013-02-28 14:25:00,
2013-02-28 08:30:00,33.0,27.5,30.22,NNW,332,11.0,12.0,80,0.00,,---,0.00,VWS V14.00,2013-02-28 14:30:00,
2013-02-28 08:35:00,33.3,27.8,30.22,NW,322,8.0,11.0,80,0.00,,---,0.00,VWS V14.00,2013-02-28 14:35:00,
2013-02-28 08:40:00,33.6,27.8,30.23,NNW,327,12.0,12.0,79,0.00,,---,0.00,VWS V14.00,2013-02-28 14:40:00,
2013-02-28 08:45:00,33.8,27.7,30.23,NW,323,9.0,11.0,78,0.00,,---,0.00,VWS V14.00,2013-02-28 14:45:00,
2013-02-28 08:50:00,34.1,28.0,30.23,NNW,329,7.0,11.0,78,0.00,,---,0.00,VWS V14.00,2013-02-28 14:50:00,
2013-02-28 08:55:00,34.4,28.3,30.23,NNW,331,9.0,10.0,78,0.00,,---,0.00,VWS V14.00,2013-02-28 14:55:00,
2013-02-28 09:00:00,34.4,28.0,30.23,NNW,327,6.0,9.0,77,0.00,,---,0.00,VWS V14.00,2013-02-28 15:00:00,
2013-02-28 09:05:00,34.9,28.4,30.23,NW,316,10.0,11.0,77,0.00,,---,0.00,VWS V14.00,2013-02-28 15:05:00,
2013-02-28 09:10:00,35.2,28.4,30.23,NW,323,7.0,12.0,76,0.00,,---,0.00,VWS V14.00,2013-02-28 15:10:00,
2013-02-28 09:15:00,35.4,28.3,30.22,NW,321,7.0,9.0,75,0.00,,---,0.00,VWS V14.00,2013-02-28 15:15:00,
2013-02-28 09:20:00,35.8,29.0,30.22,NNW,347,7.0,10.0,76,0.00,,---,0.00,VWS V14.00,2013-02-28 15:20:00,
2013-02-28 09:25:00,36.2,28.7,30.22,NW,325,9.0,9.0,74,0.00,,---,0.00,VWS V14.00,2013-02-28 15:25:00,
2013-02-28 09:30:00,36.7,29.2,30.22,NW,321,11.0,14.0,74,0.00,,---,0.00,VWS V14.00,2013-02-28 15:30:00,
2013-02-28 09:35:00,37.1,28.9,30.22,North,350,9.0,12.0,72,0.00,,---,0.00,VWS V14.00,2013-02-28 15:35:00,
2013-02-28 09:40:00,37.4,28.9,30.22,NNW,329,8.0,9.0,71,0.00,,---,0.00,VWS V14.00,2013-02-28 15:40:00,
2013-02-28 09:45:00,37.9,29.4,30.22,NNW,328,9.0,12.0,71,0.00,,---,0.00,VWS V14.00,2013-02-28 15:45:00,
2013-02-28 09:50:00,38.1,28.8,30.22,NW,312,10.0,12.0,69,0.00,,---,0.00,VWS V14.00,2013-02-28 15:50:00,
2013-02-28 09:55:00,38.2,28.9,30.22,NW,323,14.0,17.0,69,0.00,,---,0.00,VWS V14.00,2013-02-28 15:55:00,
2013-02-28 10:00:00,38.3,29.0,30.22,NNW,346,7.0,10.0,69,0.00,,---,0.00,VWS V14.00,2013-02-28 16:00:00,
2013-02-28 10:05:00,38.7,29.1,30.22,North,351,7.0,9.0,68,0.00,,---,0.00,VWS V14.00,2013-02-28 16:05:00,
2013-02-28 10:10:00,39.0,29.0,30.22,NNW,336,6.0,11.0,67,0.00,,---,0.00,VWS V14.00,2013-02-28 16:10:00,
2013-02-28 10:15:00,39.3,29.3,30.22,NNW,341,10.0,12.0,67,0.00,,---,0.00,VWS V14.00,2013-02-28 16:15:00,
2013-02-28 10:20:00,39.5,29.1,30.22,NW,321,8.0,11.0,66,0.00,,---,0.00,VWS V14.00,2013-02-28 16:20:00,
2013-02-28 10:25:00,39.7,29.3,30.22,NW,323,10.0,10.0,66,0.00,,---,0.00,VWS V14.00,2013-02-28 16:25:00,
2013-02-28 10:30:00,39.8,29.0,30.22,NW,321,9.0,11.0,65,0.00,,---,0.00,VWS V14.00,2013-02-28 16:30:00,
2013-02-28 10:35:00,40.0,29.6,30.22,NW,310,9.0,12.0,66,0.00,,---,0.00,VWS V14.00,2013-02-28 16:35:00,
2013-02-28 10:40:00,40.2,29.4,30.22,NW,317,10.0,14.0,65,0.00,,---,0.00,VWS V14.00,2013-02-28 16:40:00,
2013-02-28 10:45:00,40.4,29.2,30.22,WNW,292,9.0,10.0,64,0.00,,---,0.00,VWS V14.00,2013-02-28 16:45:00,
2013-02-28 10:50:00,40.6,29.4,30.22,NNW,333,13.0,13.0,64,0.00,,---,0.00,VWS V14.00,2013-02-28 16:50:00,
2013-02-28 10:55:00,40.7,29.5,30.22,WNW,302,6.0,9.0,64,0.00,,---,0.00,VWS V14.00,2013-02-28 16:55:00,
2013-02-28 11:00:00,41.1,29.9,30.21,WNW,293,12.0,19.0,64,0.00,,---,0.00,VWS V14.00,2013-02-28 17:00:00,
2013-02-28 11:05:00,40.9,29.3,30.21,WNW,299,9.0,12.0,63,0.00,,---,0.00,VWS V14.00,2013-02-28 17:05:00,
2013-02-28 11:10:00,41.0,29.4,30.22,NNW,342,12.0,14.0,63,0.00,,---,0.00,VWS V14.00,2013-02-28 17:10:00,
2013-02-28 11:15:00,41.1,29.1,30.22,WNW,303,9.0,13.0,62,0.00,,---,0.00,VWS V14.00,2013-02-28 17:15:00,
2013-02-28 11:20:00,41.4,29.8,30.22,WNW,289,13.0,14.0,63,0.00,,---,0.00,VWS V14.00,2013-02-28 17:20:00,
2013-02-28 11:25:00,41.8,30.1,30.22,WNW,303,11.0,11.0,63,0.00,,---,0.00,VWS V14.00,2013-02-28 17:25:00,
2013-02-28 11:30:00,42.1,29.6,30.22,NW,323,10.0,12.0,61,0.00,,---,0.00,VWS V14.00,2013-02-28 17:30:00,
2013-02-28 11:35:00,42.2,29.7,30.21,NNW,327,10.0,13.0,61,0.00,,---,0.00,VWS V14.00,2013-02-28 17:35:00,
2013-02-28 11:40:00,42.4,29.9,30.21,NW,304,11.0,14.0,61,0.00,,---,0.00,VWS V14.00,2013-02-28 17:40:00,
2013-02-28 11:45:00,42.6,29.7,30.21,NW,319,11.0,11.0,60,0.00,,---,0.00,VWS V14.00,2013-02-28 17:45:00,
2013-02-28 11:50:00,43.0,29.7,30.21,WNW,301,7.0,14.0,59,0.00,,---,0.00,VWS V14.00,2013-02-28 17:50:00,
2013-02-28 11:55:00,42.9,29.2,30.21,WNW,296,7.0,10.0,58,0.00,,---,0.00,VWS V14.00,2013-02-28 17:55:00,
2013-02-28 12:00:00,42.8,29.9,30.21,WNW,298,17.0,18.0,60,0.00,,---,0.00,VWS V14.00,2013-02-28 18:00:00,
2013-02-28 12:05:00,42.8,29.1,30.21,NNW,329,6.0,13.0,58,0.00,,---,0.00,VWS V14.00,2013-02-28 18:05:00,
2013-02-28 12:10:00,43.0,29.7,30.21,WNW,302,15.0,16.0,59,0.00,,---,0.00,VWS V14.00,2013-02-28 18:10:00,
2013-02-28 12:15:00,43.1,29.8,30.21,WNW,302,7.0,13.0,59,0.00,,---,0.00,VWS V14.00,2013-02-28 18:15:00,
2013-02-28 12:20:00,43.5,29.7,30.21,WNW,299,8.0,12.0,58,0.00,,---,0.00,VWS V14.00,2013-02-28 18:20:00,
2013-02-28 12:25:00,43.7,29.5,30.21,NW,317,6.0,9.0,57,0.00,,---,0.00,VWS V14.00,2013-02-28 18:25:00,
2013-02-28 12:30:00,44.0,30.2,30.21,NW,321,9.0,13.0,58,0.00,,---,0.00,VWS V14.00,2013-02-28 18:30:00,
2013-02-28 12:35:00,43.9,29.2,30.21,WNW,298,7.0,7.0,56,0.00,,---,0.00,VWS V14.00,2013-02-28 18:35:00,
2013-02-28 12:40:00,44.0,29.8,30.20,NW,321,12.0,15.0,57,0.00,,---,0.00,VWS V14.00,2013-02-28 18:40:00,
2013-02-28 12:45:00,44.0,29.8,30.20,WNW,296,9.0,11.0,57,0.00,,---,0.00,VWS V14.00,2013-02-28 18:45:00,
2013-02-28 12:50:00,44.3,30.0,30.20,WNW,293,12.0,15.0,57,0.00,,---,0.00,VWS V14.00,2013-02-28 18:50:00,
2013-02-28 12:55:00,44.5,29.4,30.20,WNW,289,5.0,11.0,55,0.00,,---,0.00,VWS V14.00,2013-02-28 18:55:00,
2013-02-28 13:00:00,44.5,30.2,30.19,NW,305,9.0,10.0,57,0.00,,---,0.00,VWS V14.00,2013-02-28 19:00:00,
2013-02-28 13:05:00,44.7,29.5,30.19,NW,306,9.0,15.0,55,0.00,,---,0.00,VWS V14.00,2013-02-28 19:05:00,
2013-02-28 13:10:00,44.7,30.0,30.19,NNW,327,7.0,13.0,56,0.00,,---,0.00,VWS V14.00,2013-02-28 19:10:00,
2013-02-28 13:15:00,45.0,29.8,30.19,NW,323,9.0,13.0,55,0.00,,---,0.00,VWS V14.00,2013-02-28 19:15:00,
2013-02-28 13:20:00,45.0,30.3,30.19,NW,308,12.0,13.0,56,0.00,,---,0.00,VWS V14.00,2013-02-28 19:20:00,
2013-02-28 13:25:00,44.9,29.7,30.19,NNW,327,10.0,18.0,55,0.00,,---,0.00,VWS V14.00,2013-02-28 19:25:00,
2013-02-28 13:30:00,45.0,30.3,30.18,NW,304,11.0,14.0,56,0.00,,---,0.00,VWS V14.00,2013-02-28 19:30:00,
2013-02-28 13:35:00,45.2,30.0,30.18,NW,311,13.0,15.0,55,0.00,,---,0.00,VWS V14.00,2013-02-28 19:35:00,
2013-02-28 13:40:00,45.5,29.8,30.18,NW,315,14.0,14.0,54,0.00,,---,0.00,VWS V14.00,2013-02-28 19:40:00,
2013-02-28 13:45:00,45.6,29.5,30.18,WNW,294,8.0,10.0,53,0.00,,---,0.00,VWS V14.00,2013-02-28 19:45:00,
2013-02-28 13:50:00,45.8,30.1,30.18,NNW,342,11.0,12.0,54,0.00,,---,0.00,VWS V14.00,2013-02-28 19:50:00,
2013-02-28 13:55:00,46.0,29.8,30.17,NW,304,9.0,13.0,53,0.00,,---,0.00,VWS V14.00,2013-02-28 19:55:00,
2013-02-28 14:00:00,46.1,29.9,30.17,NW,324,10.0,11.0,53,0.00,,---,0.00,VWS V14.00,2013-02-28 20:00:00,
2013-02-28 14:05:00,46.2,30.0,30.17,NW,308,9.0,15.0,53,0.00,,---,0.00,VWS V14.00,2013-02-28 20:05:00,
2013-02-28 14:10:00,46.6,30.4,30.17,NW,320,13.0,17.0,53,0.00,,---,0.00,VWS V14.00,2013-02-28 20:10:00,
2013-02-28 14:15:00,46.4,29.8,30.17,NW,317,11.0,11.0,52,0.00,,---,0.00,VWS V14.00,2013-02-28 20:15:00,
2013-02-28 14:20:00,46.5,30.3,30.17,NW,305,12.0,17.0,53,0.00,,---,0.00,VWS V14.00,2013-02-28 20:20:00,
2013-02-28 14:25:00,46.6,30.4,30.17,NNW,331,9.0,14.0,53,0.00,,---,0.00,VWS V14.00,2013-02-28 20:25:00,
2013-02-28 14:30:00,46.7,29.5,30.17,NW,324,8.0,9.0,51,0.00,,---,0.00,VWS V14.00,2013-02-28 20:30:00,
2013-02-28 14:35:00,46.7,30.0,30.17,WNW,296,10.0,10.0,52,0.00,,---,0.00,VWS V14.00,2013-02-28 20:35:00,
2013-02-28 14:40:00,46.8,29.6,30.17,NW,325,7.0,13.0,51,0.00,,---,0.00,VWS V14.00,2013-02-28 20:40:00,
2013-02-28 14:45:00,47.3,30.6,30.17,WNW,298,11.0,13.0,52,0.00,,---,0.00,VWS V14.00,2013-02-28 20:45:00,
2013-02-28 14:50:00,47.5,30.8,30.16,WNW,302,16.0,17.0,52,0.00,,---,0.00,VWS V14.00,2013-02-28 20:50:00,
2013-02-28 14:55:00,47.6,29.9,30.17,WNW,300,6.0,12.0,50,0.00,,---,0.00,VWS V14.00,2013-02-28 20:55:00,
2013-02-28 15:00:00,47.7,30.0,30.17,NNW,346,10.0,11.0,50,0.00,,---,0.00,VWS V14.00,2013-02-28 21:00:00,
2013-02-28 15:05:00,47.8,29.6,30.17,NW,315,9.0,12.0,49,0.00,,---,0.00,VWS V14.00,2013-02-28 21:05:00,
2013-02-28 15:10:00,47.8,30.1,30.17,WNW,300,8.0,9.0,50,0.00,,---,0.00,VWS V14.00,2013-02-28 21:10:00,
2013-02-28 15:15:00,48.0,30.3,30.17,NNW,342,13.0,13.0,50,0.00,,---,0.00,VWS V14.00,2013-02-28 21:15:00,
2013-02-28 15:20:00,48.0,29.8,30.17,North,355,6.0,10.0,49,0.00,,---,0.00,VWS V14.00,2013-02-28 21:20:00,
2013-02-28 15:25:00,48.1,30.8,30.17,NW,306,11.0,13.0,51,0.00,,---,0.00,VWS V14.00,2013-02-28 21:25:00,
2013-02-28 15:30:00,48.1,30.4,30.17,NW,311,12.0,12.0,50,0.00,,---,0.00,VWS V14.00,2013-02-28 21:30:00,
2013-02-28 15:35:00,48.1,29.9,30.17,NNW,335,7.0,12.0,49,0.00,,---,0.00,VWS V14.00,2013-02-28 21:35:00,
2013-02-28 15:40:00,48.0,29.8,30.17,NW,309,7.0,12.0,49,0.00,,---,0.00,VWS V14.00,2013-02-28 21:40:00,
2013-02-28 15:45:00,47.7,30.0,30.17,WNW,290,8.0,13.0,50,0.00,,---,0.00,VWS V14.00,2013-02-28 21:45:00,
2013-02-28 15:50:00,47.6,30.4,30.17,NW,317,11.0,15.0,51,0.00,,---,0.00,VWS V14.00,2013-02-28 21:50:00,
2013-02-28 15:55:00,47.2,30.0,30.17,WNW,298,10.0,15.0,51,0.00,,---,0.00,VWS V14.00,2013-02-28 21:55:00,
2013-02-28 16:00:00,47.3,30.6,30.17,WNW,301,14.0,16.0,52,0.00,,---,0.00,VWS V14.00,2013-02-28 22:00:00,
2013-02-28 16:05:00,47.3,30.6,30.17,North,351,9.0,12.0,52,0.00,,---,0.00,VWS V14.00,2013-02-28 22:05:00,
2013-02-28 16:10:00,47.2,30.5,30.16,WNW,296,10.0,15.0,52,0.00,,---,0.00,VWS V14.00,2013-02-28 22:10:00,
2013-02-28 16:15:00,46.6,30.4,30.17,WNW,292,12.0,16.0,53,0.00,,---,0.00,VWS V14.00,2013-02-28 22:15:00,
2013-02-28 16:20:00,46.2,30.5,30.17,NW,305,7.0,13.0,54,0.00,,---,0.00,VWS V14.00,2013-02-28 22:20:00,
2013-02-28 16:25:00,46.1,30.9,30.16,NW,316,9.0,10.0,55,0.00,,---,0.00,VWS V14.00,2013-02-28 22:25:00,
2013-02-28 16:30:00,46.0,30.8,30.16,North,360,8.0,11.0,55,0.00,,---,0.00,VWS V14.00,2013-02-28 22:30:00,
2013-02-28 16:35:00,46.1,30.4,30.17,NNW,337,7.0,11.0,54,0.00,,---,0.00,VWS V14.00,2013-02-28 22:35:00,
2013-02-28 16:40:00,46.1,30.9,30.17,North,351,9.0,12.0,55,0.00,,---,0.00,VWS V14.00,2013-02-28 22:40:00,
2013-02-28 16:45:00,45.8,30.1,30.17,North,355,10.0,11.0,54,0.00,,---,0.00,VWS V14.00,2013-02-28 22:45:00,
2013-02-28 16:50:00,45.7,30.5,30.17,North,355,7.0,15.0,55,0.00,,---,0.00,VWS V14.00,2013-02-28 22:50:00,
2013-02-28 16:55:00,45.6,30.8,30.17,NNW,344,7.0,10.0,56,0.00,,---,0.00,VWS V14.00,2013-02-28 22:55:00,
2013-02-28 17:00:00,45.3,31.0,30.17,NNW,346,11.0,12.0,57,0.00,,---,0.00,VWS V14.00,2013-02-28 23:00:00,
2013-02-28 17:05:00,45.0,30.7,30.17,NNW,342,7.0,9.0,57,0.00,,---,0.00,VWS V14.00,2013-02-28 23:05:00,
2013-02-28 17:10:00,44.7,30.9,30.17,North,349,6.0,7.0,58,0.00,,---,0.00,VWS V14.00,2013-02-28 23:10:00,
2013-02-28 17:15:00,44.4,30.6,30.17,North,351,5.0,10.0,58,0.00,,---,0.00,VWS V14.00,2013-02-28 23:15:00,
2013-02-28 17:20:00,44.1,31.1,30.17,NNW,346,10.0,13.0,60,0.00,,---,0.00,VWS V14.00,2013-02-28 23:20:00,
2013-02-28 17:25:00,43.7,30.7,30.17,NNW,345,6.0,10.0,60,0.00,,---,0.00,VWS V14.00,2013-02-28 23:25:00,
2013-02-28 17:30:00,43.3,30.4,30.17,North,355,9.0,11.0,60,0.00,,---,0.00,VWS V14.00,2013-02-28 23:30:00,
2013-02-28 17:35:00,43.0,30.5,30.18,North,5,10.0,10.0,61,0.00,,---,0.00,VWS V14.00,2013-02-28 23:35:00,
2013-02-28 17:40:00,42.7,30.6,30.18,North,360,7.0,10.0,62,0.00,,---,0.00,VWS V14.00,2013-02-28 23:40:00,
2013-02-28 17:45:00,42.5,30.4,30.18,NNW,348,6.0,12.0,62,0.00,,---,0.00,VWS V14.00,2013-02-28 23:45:00,
2013-02-28 17:50:00,42.2,30.1,30.19,NNE,13,6.0,10.0,62,0.00,,---,0.00,VWS V14.00,2013-02-28 23:50:00,
2013-02-28 17:55:00,41.8,29.8,30.19,North,5,6.0,8.0,62,0.00,,---,0.00,VWS V14.00,2013-02-28 23:55:00,
2013-02-28 18:00:00,41.4,29.8,30.19,NNE,13,6.0,7.0,63,0.00,,---,0.00,VWS V14.00,2013-03-01 00:00:00,
2013-02-28 18:05:00,41.0,29.8,30.19,North,11,5.0,7.0,64,0.00,,---,0.00,VWS V14.00,2013-03-01 00:05:00,
2013-02-28 18:10:00,40.6,29.4,30.19,North,11,6.0,6.0,64,0.00,,---,0.00,VWS V14.00,2013-03-01 00:10:00,
2013-02-28 18:15:00,40.2,29.4,30.19,North,11,5.0,9.0,65,0.00,,---,0.00,VWS V14.00,2013-03-01 00:15:00,
2013-02-28 18:20:00,39.8,29.4,30.20,NNE,12,5.0,6.0,66,0.00,,---,0.00,VWS V14.00,2013-03-01 00:20:00,
2013-02-28 18:25:00,39.5,29.1,30.19,NNE,12,4.0,4.0,66,0.00,,---,0.00,VWS V14.00,2013-03-01 00:25:00,
2013-02-28 18:30:00,39.3,29.3,30.20,NNE,12,2.0,4.0,67,0.00,,---,0.00,VWS V14.00,2013-03-01 00:30:00,
2013-02-28 18:35:00,38.9,28.9,30.20,NNE,12,3.0,5.0,67,0.00,,---,0.00,VWS V14.00,2013-03-01 00:35:00,
2013-02-28 18:40:00,38.6,29.0,30.19,NNE,12,3.0,7.0,68,0.00,,---,0.00,VWS V14.00,2013-03-01 00:40:00,
2013-02-28 18:45:00,38.3,28.7,30.20,NNE,12,3.0,5.0,68,0.00,,---,0.00,VWS V14.00,2013-03-01 00:45:00,
2013-02-28 18:50:00,38.1,28.8,30.20,NNE,12,3.0,3.0,69,0.00,,---,0.00,VWS V14.00,2013-03-01 00:50:00,
2013-02-28 18:55:00,37.9,29.0,30.20,NNE,12,4.0,7.0,70,0.00,,---,0.00,VWS V14.00,2013-03-01 00:55:00,
2013-02-28 19:00:00,37.7,28.8,30.20,NNE,12,4.0,5.0,70,0.00,,---,0.00,VWS V14.00,2013-03-01 01:00:00,
2013-02-28 19:05:00,37.5,28.6,30.20,NNE,12,3.0,5.0,70,0.00,,---,0.00,VWS V14.00,2013-03-01 01:05:00,
2013-02-28 19:10:00,37.3,28.8,30.20,NNE,12,4.0,5.0,71,0.00,,---,0.00,VWS V14.00,2013-03-01 01:10:00,
2013-02-28 19:15:00,37.1,28.6,30.20,North,11,4.0,6.0,71,0.00,,---,0.00,VWS V14.00,2013-03-01 01:15:00,
2013-02-28 19:20:00,37.0,28.8,30.20,North,11,4.0,6.0,72,0.00,,---,0.00,VWS V14.00,2013-03-01 01:20:00,
2013-02-28 19:25:00,36.9,28.7,30.20,North,11,3.0,5.0,72,0.00,,---,0.00,VWS V14.00,2013-03-01 01:25:00,
2013-02-28 19:30:00,36.9,28.7,30.20,North,11,2.0,3.0,72,0.00,,---,0.00,VWS V14.00,2013-03-01 01:30:00,
2013-02-28 19:35:00,36.8,29.0,30.20,North,11,6.0,6.0,73,0.00,,---,0.00,VWS V14.00,2013-03-01 01:35:00,
2013-02-28 19:40:00,36.9,29.1,30.20,North,11,3.0,6.0,73,0.00,,---,0.00,VWS V14.00,2013-03-01 01:40:00,
2013-02-28 19:45:00,36.9,29.1,30.20,North,11,4.0,6.0,73,0.00,,---,0.00,VWS V14.00,2013-03-01 01:45:00,
2013-02-28 19:50:00,37.0,29.2,30.21,North,11,4.0,6.0,73,0.00,,---,0.00,VWS V14.00,2013-03-01 01:50:00,
2013-02-28 19:55:00,37.1,29.3,30.21,North,11,5.0,8.0,73,0.00,,---,0.00,VWS V14.00,2013-03-01 01:55:00,
2013-02-28 20:00:00,37.2,29.0,30.21,North,10,6.0,7.0,72,0.00,,---,0.00,VWS V14.00,2013-03-01 02:00:00,
2013-02-28 20:05:00,37.4,28.9,30.21,North,9,3.0,9.0,71,0.00,,---,0.00,VWS V14.00,2013-03-01 02:05:00,
2013-02-28 20:10:00,37.5,29.0,30.21,North,9,6.0,7.0,71,0.00,,---,0.00,VWS V14.00,2013-03-01 02:10:00,
2013-02-28 20:15:00,37.6,28.7,30.21,North,9,4.0,7.0,70,0.00,,---,0.00,VWS V14.00,2013-03-01 02:15:00,
2013-02-28 20:20:00,37.7,28.8,30.21,North,9,4.0,4.0,70,0.00,,---,0.00,VWS V14.00,2013-03-01 02:20:00,
2013-02-28 20:25:00,37.8,28.9,30.21,North,9,1.0,3.0,70,0.00,,---,0.00,VWS V14.00,2013-03-01 02:25:00,
2013-02-28 20:30:00,37.9,29.4,30.22,North,9,2.0,4.0,71,0.00,,---,0.00,VWS V14.00,2013-03-01 02:30:00,
2013-02-28 20:35:00,37.9,29.4,30.22,North,9,7.0,9.0,71,0.00,,---,0.00,VWS V14.00,2013-03-01 02:35:00,
2013-02-28 20:40:00,38.0,29.5,30.22,North,5,7.0,9.0,71,0.00,,---,0.00,VWS V14.00,2013-03-01 02:40:00,
2013-02-28 20:45:00,38.0,29.5,30.22,North,355,4.0,5.0,71,0.00,,---,0.00,VWS V14.00,2013-03-01 02:45:00,
2013-02-28 20:50:00,38.0,28.8,30.22,NNW,331,8.0,8.0,69,0.00,,---,0.00,VWS V14.00,2013-03-01 02:50:00,
2013-02-28 20:55:00,38.0,28.8,30.22,NNW,337,8.0,11.0,69,0.00,,---,0.00,VWS V14.00,2013-03-01 02:55:00,
2013-02-28 21:00:00,38.0,28.8,30.22,North,355,8.0,10.0,69,0.00,,---,0.00,VWS V14.00,2013-03-01 03:00:00,
2013-02-28 21:05:00,37.9,28.6,30.22,NNW,339,6.0,11.0,69,0.00,,---,0.00,VWS V14.00,2013-03-01 03:05:00,
2013-02-28 21:10:00,37.9,28.6,30.22,NNW,339,9.0,10.0,69,0.00,,---,0.00,VWS V14.00,2013-03-01 03:10:00,
2013-02-28 21:15:00,37.9,28.6,30.22,NNW,340,5.0,9.0,69,0.00,,---,0.00,VWS V14.00,2013-03-01 03:15:00,
2013-02-28 21:20:00,37.9,28.3,30.22,NNW,343,4.0,11.0,68,0.00,,---,0.00,VWS V14.00,2013-03-01 03:20:00,
2013-02-28 21:25:00,37.8,28.6,30.22,NNW,339,8.0,8.0,69,0.00,,---,0.00,VWS V14.00,2013-03-01 03:25:00,
2013-02-28 21:30:00,37.8,28.6,30.22,NNW,339,5.0,10.0,69,0.00,,---,0.00,VWS V14.00,2013-03-01 03:30:00,
2013-02-28 21:35:00,37.7,28.1,30.22,NNW,338,8.0,11.0,68,0.00,,---,0.00,VWS V14.00,2013-03-01 03:35:00,
2013-02-28 21:40:00,37.6,28.4,30.22,NNW,337,10.0,10.0,69,0.00,,---,0.00,VWS V14.00,2013-03-01 03:40:00,
2013-02-28 21:45:00,37.6,28.4,30.22,NNW,338,9.0,10.0,69,0.00,,---,0.00,VWS V14.00,2013-03-01 03:45:00,
2013-02-28 21:50:00,37.4,27.8,30.22,NNW,337,8.0,11.0,68,0.00,,---,0.00,VWS V14.00,2013-03-01 03:50:00,
2013-02-28 21:55:00,37.4,27.8,30.22,North,350,11.0,11.0,68,0.00,,---,0.00,VWS V14.00,2013-03-01 03:55:00,
2013-02-28 22:00:00,37.3,27.7,30.22,NNW,346,6.0,7.0,68,0.00,,---,0.00,VWS V14.00,2013-03-01 04:00:00,
2013-02-28 22:05:00,37.3,28.1,30.22,NNW,340,6.0,10.0,69,0.00,,---,0.00,VWS V14.00,2013-03-01 04:05:00,
2013-02-28 22:10:00,37.2,28.0,30.22,NNW,338,4.0,9.0,69,0.00,,---,0.00,VWS V14.00,2013-03-01 04:10:00,
2013-02-28 22:15:00,37.1,27.9,30.22,NNW,341,7.0,10.0,69,0.00,,---,0.00,VWS V14.00,2013-03-01 04:15:00,
2013-02-28 22:20:00,37.1,27.5,30.22,NNW,336,6.0,13.0,68,0.00,,---,0.00,VWS V14.00,2013-03-01 04:20:00,
2013-02-28 22:25:00,37.0,27.4,30.22,NNW,346,7.0,9.0,68,0.00,,---,0.00,VWS V14.00,2013-03-01 04:25:00,
2013-02-28 22:30:00,36.9,27.3,30.22,NNW,345,9.0,9.0,68,0.00,,---,0.00,VWS V14.00,2013-03-01 04:30:00,
2013-02-28 22:35:00,36.8,27.2,30.22,NNW,334,5.0,9.0,68,0.00,,---,0.00,VWS V14.00,2013-03-01 04:35:00,
2013-02-28 22:40:00,36.8,27.6,30.22,NNW,335,7.0,7.0,69,0.00,,---,0.00,VWS V14.00,2013-03-01 04:40:00,
2013-02-28 22:45:00,36.6,27.0,30.22,NNW,346,10.0,10.0,68,0.00,,---,0.00,VWS V14.00,2013-03-01 04:45:00,
2013-02-28 22:50:00,36.4,26.9,30.22,NNW,341,8.0,10.0,68,0.00,,---,0.00,VWS V14.00,2013-03-01 04:50:00,
2013-02-28 22:55:00,36.3,26.8,30.22,North,360,12.0,12.0,68,0.00,,---,0.00,VWS V14.00,2013-03-01 04:55:00,
2013-02-28 23:00:00,36.1,26.6,30.22,NNW,341,5.0,7.0,68,0.00,,---,0.00,VWS V14.00,2013-03-01 05:00:00,
2013-02-28 23:05:00,36.0,26.8,30.22,NNW,345,10.0,11.0,69,0.00,,---,0.00,VWS V14.00,2013-03-01 05:05:00,
2013-02-28 23:06:00,36.0,26.8,30.22,NNW,346,6.0,11.0,69,0.00,,---,0.00,VWS V14.00,2013-03-01 05:06:00,
2013-02-28 23:10:00,36.0,26.8,30.21,NNW,338,7.0,11.0,69,0.00,,---,0.00,VWS V14.00,2013-03-01 05:10:00,
2013-02-28 23:11:00,36.0,26.8,30.21,NNW,335,7.0,11.0,69,0.00,,---,0.00,VWS V14.00,2013-03-01 05:11:00,
2013-02-28 23:15:00,36.0,26.8,30.22,NNW,327,10.0,12.0,69,0.00,,---,0.00,VWS V14.00,2013-03-01 05:15:00,
2013-02-28 23:16:00,36.0,27.2,30.22,NNW,327,4.0,11.0,70,0.00,,---,0.00,VWS V14.00,2013-03-01 05:16:00,
2013-02-28 23:20:00,36.0,27.2,30.22,NNW,327,9.0,11.0,70,0.00,,---,0.00,VWS V14.00,2013-03-01 05:20:00,
2013-02-28 23:21:00,36.0,27.2,30.21,NW,325,7.0,10.0,70,0.00,,---,0.00,VWS V14.00,2013-03-01 05:21:00,
2013-02-28 23:25:00,36.0,27.2,30.22,NW,324,7.0,11.0,70,0.00,,---,0.00,VWS V14.00,2013-03-01 05:25:00,
2013-02-28 23:26:00,36.0,27.2,30.22,NW,324,5.0,10.0,70,0.00,,---,0.00,VWS V14.00,2013-03-01 05:26:00,
2013-02-28 23:30:00,36.0,27.2,30.22,NW,323,11.0,11.0,70,0.00,,---,0.00,VWS V14.00,2013-03-01 05:30:00,
2013-02-28 23:31:00,36.0,27.2,30.22,NW,325,6.0,13.0,70,0.00,,---,0.00,VWS V14.00,2013-03-01 05:31:00,
2013-02-28 23:35:00,35.9,27.1,30.22,NNW,347,5.0,13.0,70,0.00,,---,0.00,VWS V14.00,2013-03-01 05:35:00,
2013-02-28 23:36:00,35.9,27.1,30.22,NNW,347,4.0,10.0,70,0.00,,---,0.00,VWS V14.00,2013-03-01 05:36:00,
2013-02-28 23:40:00,35.9,27.1,30.22,North,355,8.0,10.0,70,0.00,,---,0.00,VWS V14.00,2013-03-01 05:40:00,
2013-02-28 23:41:00,35.9,27.1,30.22,NNW,347,10.0,14.0,70,0.00,,---,0.00,VWS V14.00,2013-03-01 05:41:00,
2013-02-28 23:45:00,35.9,27.1,30.22,NNW,332,11.0,14.0,70,0.00,,---,0.00,VWS V14.00,2013-03-01 05:45:00,
2013-02-28 23:46:00,35.9,27.1,30.22,NNW,332,6.0,11.0,70,0.00,,---,0.00,VWS V14.00,2013-03-01 05:46:00,
2013-02-28 23:50:00,35.0,26.6,30.21,North,9,4.0,9.0,71,0.00,,---,0.00,VWS V14.00,2013-03-01 05:50:00,
2013-02-28 23:51:00,35.9,27.4,30.21,NNW,333,5.0,7.0,71,0.00,,---,0.00,VWS V14.00,2013-03-01 05:51:00,
2013-02-28 23:55:00,34.8,26.0,30.22,North,5,8.0,14.0,70,0.00,,---,0.00,VWS V14.00,2013-03-01 05:55:00,
2013-02-28 23:56:00,35.8,27.3,30.21,North,355,7.0,11.0,71,0.00,,---,0.00,VWS V14.00,2013-03-01 05:56:00,